Presure
101 85 195 143 178 100 162 82 86 123 115 96 145 130 136 92 96 135 102 135 103 92 96 93 107 91 86 130 109 103 104 123 123 116 119 136 135 132 113 123 135 172 176
145 107 198 191 173 129 166 100 106 93 158 160 92 114 135 160 86 164 96 99 97 180 96 136 90 94 108 95 100 92 100 116 134 122 124 133 135 130 115 109 101 116 101
105 173 92 190 181 174 170 203 73 170 110 133 167 157 128 160 118 155 88 96 98 103 95 93 88 93 94 94 127 138 140 87 92 127 110 124 95 134 121 126 116 134 150
175 171 192 191 95 193 173 172 154 163 139 160 156 127 134 137 155 151 126 118 88 94 139 119 99 100 96 95 96 97 131 90 95 120 162 118 123 132 125 119 115 121 108
201 203 199 180 185 189 193 184 122 103 124 169 119 147 160 171 164 164 170 145 94 183 126 169 126 124 96 93 95 98 136 95 106 124 102 101 118 90 99 110 115 120 98
192 205 204 187 97 193 175 156 157 195 172 156 105 173 86 175 173 174 170 167 161 122 94 116 131 160 101 97 99 98 101 126 179 131 88 109 158 104 113 118 98 115 97
199 220 195 190 211 197 180 163 189 168 184 182 170 170 163 95 87 169 181 167 170 173 135 92 128 99 171 97 93 97 114 106 129 111 97 103 130 95 122 113 107 115 107
196 188 190 196 186 195 161 164 166 137 186 178 191 168 172 172 187 124 90 88 176 191 177 175 127 95 140 94 121 139 116 102 100 109 116 98 118 90 111 111 96 106 113
184 205 189 189 196 189 194 191 165 161 195 182 184 171 182 173 165 168 174 178 163 178 191 183 166 162 123 106 129 157 95 125 127 101 120 122 120 103 109 106 129 133 123
172 175 173 171 188 186 185 191 179 157 176 171 169 171 171 176 176 168 175 163 169 170 177 170 163 181 162 174 130 102 102 117 129 92 113 174 102 107 111 105 91 96 103
184 160 158 188 189 188 178 173 167 163 161 159 169 172 166 161 162 174 172 168 169 175 170 158 172 176 174 178 173 173 181 160 168 102 109 101 99 98 123 110 106 98 106
176 183 175 173 175 180 179 180 166 175 173 174 171 174 174 161 166 178 170 166 163 163 169 174 171 169 170 164 162 178 175 172 171 145 179 180 180 128 124 125 124 104 143
196 197 202 206 202 190 186 184 184 183 184 185 187 186 183 181 179 168 154 164 162 169 168 162 159 155 159 168 169 168 165 160 177 123 173 107 174 96 94 99 106 106 104
182 186 194 198 198 202 202 206 205 207 211 214 205 209 197 209 219 196 196 194 192 191 183 178 179 156 177 168 154 158 163 175 179 172 159 172 172 94 93 156 132 174 172
172 173 173 174 178 181 182 183 184 188 187 186 185 185 184 187 192 195 196 200 204 210 187 199 202 204 196 185 202 189 169 172 170 165 173 178 131 164 162 144 172 163 168
161 161 161 171 170 177 182 174 174 184 194 184 201 200 187 189 184 188 194 196 186 192 193 194 202 211 215 221 212 184 195 179 174 172 165 176 181 180 144 175 162 174 181
170 175 168 161 156 154 157 157 161 158 157 162 163 165 185 181 200 210 220 180 185 206 200 202 205 202 201 195 199 208 212 213 206 206 165 168 172 171 167 167 172 183 180
151 165 162 144 171 169 172 168 172 171 174 172 169 163 172 214 163 201 201 205 208 201 193 172 171 189 193 192 198 206 190 187 199 206 213 221 188 172 162 172 172 172 176
167 171 162 167 162 163 167 164 166 171 175 159 158 161 162 181 147 159 177 146 146 210 188 152 211 208 175 206 209 203 197 197 204 201 198 195 211 221 223 206 174 179 179
167 165 167 170 165 176 179 172 173 168 162 165 169 155 163 168 194 189 135 194 207 211 173 194 158 192 187 183 219 217 208 210 189 215 191 194 212 192 204 206 225 230 222
147 158 162 161 177 180 183 185 181 178 190 197 187 186 200 181 214 182 184 229 189 190 213 186 210 204 192 181 184 155 187 238 230 236 232 233 219 190 189 184 190 193 200
159 163 165 176 163 168 161 173 177 174 184 189 191 184 186 174 174 190 187 173 189 215 215 189 201 208 216 201 219 218 212 217 205 246 218 232 224 248 244 188 204 209 218
155 163 163 166 165 162 154 155 164 178 176 189 182 172 180 184 182 173 186 209 194 185 161 191 192 187 202 209 209 211 229 214 226 196 234 216 243 229 241 240 215 219 230
168 162 154 157 171 160 162 163 161 179 177 172 168 165 167 173 191 187 206 183 190 201 188 207 243 252 194 248 271 225 224 256 331 281 234 219 231 249 243 231 244 231 201
164 163 164 160 166 164 168 172 166 157 152 190 168 171 172 157 178 174 194 210 192 222 238 242 248 267 269 197 202 212 259 321 317 323 258 277 244 247 239 255 176 238 240
163 168 164 163 161 162 161 166 166 158 156 161 159 161 162 202 205 185 229 202 233 204 236 222 233 199 274 254 251 216 310 213 267 307 327 305 265 259 251 246 244 243 239
Wind_Speed
38 24 37 36 44 31 44 31 32 35 36 32 40 41 43 29 33 36 37 44 34 31 33 27 32 27 24 41 35 27 25 41 40 34 36 36 35 32 31 31 32 36 40
31 32 35 44 48 43 47 23 40 43 46 45 35 44 45 44 28 41 34 37 38 38 36 45 29 32 37 30 32 28 27 39 41 38 38 38 38 37 32 29 26 29 25
42 26 37 42 48 47 50 45 26 51 48 48 46 47 49 47 50 43 33 37 39 45 42 38 32 35 36 34 49 48 47 32 32 40 37 38 33 40 37 36 35 35 37
31 34 41 43 43 51 49 51 47 50 54 51 50 41 39 47 47 51 42 47 38 43 48 46 44 45 39 39 37 36 50 32 33 40 44 40 40 42 39 36 35 38 26
35 38 41 42 46 48 51 50 46 45 48 54 46 47 49 51 50 48 50 49 43 48 49 49 52 53 42 39 41 42 49 38 40 50 39 36 43 35 36 37 39 41 31
36 40 40 39 55 40 41 45 46 47 51 49 45 56 46 57 54 55 54 55 53 57 48 51 55 50 51 44 46 43 46 56 50 55 38 44 52 39 40 43 38 39 33
30 36 32 34 38 42 32 41 43 46 49 53 50 50 48 49 48 52 56 53 53 54 60 49 61 54 56 51 46 48 54 49 60 51 41 42 56 40 52 44 39 42 40
32 30 33 33 30 37 36 36 44 50 46 48 48 49 51 52 55 53 52 47 55 56 59 58 65 53 57 53 64 55 53 52 50 52 55 45 54 43 49 47 41 40 43
26 38 32 33 37 33 39 39 42 42 47 45 48 49 53 52 51 52 52 54 57 55 56 59 60 59 67 60 67 64 54 65 67 55 64 64 62 49 52 48 59 56 56
28 29 30 31 40 39 35 38 39 44 43 45 47 49 50 52 56 56 56 58 57 58 58 60 62 61 62 63 71 63 63 68 71 49 65 66 55 55 57 51 44 45 46
33 32 33 43 46 46 41 38 40 43 45 49 50 52 52 55 57 59 61 62 61 61 62 64 64 65 66 67 68 68 68 66 68 66 66 61 57 52 69 58 54 50 51
33 37 37 38 40 44 45 47 43 46 47 48 51 54 57 60 61 63 63 64 64 65 64 67 68 69 70 71 71 72 72 72 72 72 72 72 72 77 76 75 73 55 71
23 27 31 36 43 49 54 55 58 59 61 61 62 61 61 62 62 64 67 68 70 71 71 72 74 75 75 75 75 76 75 78 77 69 75 69 76 64 59 63 67 66 59
19 20 22 26 31 36 40 44 48 50 52 55 56 58 59 64 67 65 68 70 73 75 75 78 78 82 82 83 84 84 82 82 82 81 80 78 79 67 64 74 80 74 75
23 26 28 30 32 34 36 38 41 42 46 48 50 52 56 58 58 59 61 66 70 73 78 80 82 84 87 89 90 89 88 88 88 88 87 87 81 85 84 72 82 82 82
34 35 36 32 34 31 31 39 42 40 41 49 49 53 58 61 64 66 67 69 75 76 78 81 82 83 84 84 86 90 92 92 92 93 92 92 92 91 82 89 88 87 87
29 27 34 40 45 49 49 52 51 58 62 56 56 57 55 61 61 65 68 72 75 79 81 82 84 85 88 87 89 89 88 91 95 96 97 98 98 96 93 93 92 93 92
47 36 39 54 40 45 45 49 48 50 51 56 62 68 64 65 74 67 70 73 76 77 79 89 89 84 87 88 92 96 96 96 97 97 99 100 104 102 99 99 97 96 94
37 39 46 48 52 52 50 53 55 57 60 67 69 71 73 70 85 82 77 87 88 82 86 95 93 93 99 96 97 97 97 97 100 101 102 102 102 103 104 105 105 104 101
43 44 47 50 52 53 56 60 61 61 67 65 69 74 74 76 75 78 82 82 82 85 92 88 91 90 96 99 109 109 110 110 106 111 104 105 107 103 103 105 104 103 103
52 49 52 53 57 57 58 60 63 66 71 71 76 79 76 79 70 82 85 67 93 93 87 94 99 101 96 96 88 103 106 117 122 120 123 122 112 108 107 108 107 109 107
51 56 60 61 62 64 63 68 71 72 76 80 82 85 85 82 85 85 98 87 90 81 90 102 99 96 104 106 113 117 107 112 92 121 119 112 119 123 120 115 112 106 105
55 62 63 68 70 71 67 68 76 82 84 84 91 87 95 97 92 94 108 95 111 101 98 116 117 102 118 125 117 109 114 97 121 118 120 109 123 119 117 112 116 115 114
63 62 66 70 75 76 80 82 82 83 87 91 91 87 92 101 104 110 108 111 113 116 119 121 111 112 109 113 104 123 112 104 103 112 123 118 111 123 119 114 116 107 120
66 69 71 73 78 83 86 88 92 82 78 91 95 100 106 87 112 109 117 111 121 110 121 117 111 115 112 90 90 106 106 110 107 105 101 120 125 120 107 121 107 110 113
72 75 75 78 81 85 87 91 95 88 92 101 96 101 103 103 106 123 108 120 111 122 123 122 130 119 116 106 130 97 113 108 119 106 103 108 128 131 122 106 114 110 110
Wind_Direction
259 245 218 228 224 242 250 248 249 238 241 248 243 241 244 238 242 240 247 247 250 251 252 246 251 254 239 242 265 267 266 256 259 262 260 250 250 247 263 260 261 251 249
246 260 211 210 231 255 244 257 242 241 250 255 246 247 245 251 236 245 244 247 251 243 253 244 245 252 251 256 260 244 260 260 248 247 256 251 248 248 255 263 252 262 251
266 220 263 214 222 237 220 227 286 240 238 242 246 250 248 254 248 246 241 244 246 246 253 254 248 249 253 254 250 249 250 241 246 253 251 254 243 249 254 254 260 261 254
234 226 212 214 255 221 235 236 252 243 237 253 259 254 251 243 242 248 241 245 243 241 246 246 254 250 247 253 254 254 250 242 246 255 244 257 253 250 250 255 259 261 253
219 213 216 232 232 227 226 234 250 252 247 243 247 255 259 252 257 253 249 248 243 241 250 248 245 245 248 250 252 256 247 253 249 250 255 253 253 246 247 252 254 261 245
235 225 221 237 251 226 239 242 242 238 252 261 248 248 251 252 256 254 255 256 258 246 246 247 243 251 254 254 250 250 251 251 242 249 256 255 252 246 254 251 247 256 254
242 223 236 244 229 226 242 247 241 253 245 249 260 255 255 255 253 255 256 260 258 255 249 249 246 249 252 255 256 256 249 252 251 254 253 257 247 252 251 254 252 256 252
242 260 259 252 253 235 247 249 247 246 250 252 248 256 255 259 262 251 252 252 260 257 260 259 249 250 251 255 248 253 255 255 256 254 251 250 254 251 253 257 252 253 257
269 241 266 268 261 256 249 253 248 254 247 252 250 254 256 257 258 260 261 261 255 260 260 260 256 255 249 248 249 252 256 247 246 257 251 251 253 252 252 252 253 251 256
266 269 268 267 268 269 272 268 251 253 252 254 254 256 256 257 258 257 259 254 256 258 261 257 253 259 254 257 249 252 253 250 248 259 257 255 257 254 255 252 253 252 253
267 256 249 272 271 271 270 265 252 248 253 255 258 257 255 254 256 259 257 256 256 258 257 254 258 259 258 260 259 258 259 257 254 257 254 258 258 256 253 257 255 249 253
262 263 267 267 270 269 271 274 257 269 261 258 255 258 259 255 257 259 258 259 258 258 261 262 260 260 260 256 254 260 259 257 256 255 256 256 256 250 252 253 254 256 253
263 262 264 264 264 267 271 272 272 273 274 276 275 276 274 273 269 260 258 260 259 261 261 258 255 253 255 259 259 257 257 254 259 255 254 256 254 257 258 261 261 261 257
256 258 266 266 265 265 266 267 269 270 273 274 276 278 279 281 280 277 276 275 273 269 263 259 260 253 258 255 254 254 254 257 258 256 253 253 255 255 253 247 253 251 250
268 267 267 269 272 274 276 277 278 276 274 274 273 273 273 274 275 274 273 272 273 275 269 269 267 265 261 259 263 259 255 257 256 254 255 255 254 251 249 252 249 247 249
256 259 264 269 269 275 280 273 272 279 287 276 282 281 278 278 276 273 271 271 271 270 269 270 271 270 268 269 267 264 264 260 257 257 258 257 255 253 252 251 248 250 251
278 293 264 260 265 266 264 266 266 269 273 270 271 270 291 282 284 282 279 275 277 274 275 275 274 275 273 272 269 267 265 265 264 260 257 258 258 256 252 252 251 251 250
262 275 277 274 285 284 281 275 283 284 284 281 275 274 282 285 274 289 287 285 283 280 276 271 267 271 271 270 271 270 266 263 263 261 261 258 257 257 257 256 252 251 250
288 294 271 278 271 271 277 270 277 283 290 278 281 279 281 288 276 272 288 274 274 283 278 270 279 279 271 276 273 269 266 265 265 263 262 261 259 258 257 256 257 256 253
296 294 296 300 291 301 301 296 296 288 278 284 288 281 282 282 295 290 277 285 287 282 276 286 274 282 273 271 271 271 270 270 262 266 257 258 261 257 257 257 256 254 253
281 289 290 288 303 299 299 299 297 296 303 302 299 296 299 291 291 293 298 289 296 294 282 285 282 279 280 266 270 267 268 263 267 266 265 264 260 253 252 253 254 254 253
294 301 302 304 296 300 293 300 300 298 303 306 306 303 303 295 299 297 301 287 292 299 291 288 288 273 277 283 278 281 266 272 274 264 263 266 260 262 261 250 254 254 254
294 303 301 302 301 299 292 294 302 305 306 311 308 304 305 303 295 300 298 286 293 290 271 290 289 285 280 284 284 274 274 267 271 267 268 269 265 262 263 257 252 252 255
301 297 295 298 298 300 302 303 303 310 309 308 304 301 302 303 296 298 287 299 291 287 290 287 299 290 287 283 277 282 275 264 265 258 263 268 267 260 260 258 256 251 246
297 297 296 299 301 303 302 302 304 304 300 303 302 301 301 289 299 298 295 284 295 291 310 304 299 294 288 281 284 284 269 273 269 264 259 248 260 261 256 253 259 251 250
297 298 300 302 302 302 303 302 301 300 303 304 300 301 299 303 298 299 313 291 309 291 309 297 293 293 290 290 286 278 281 280 271 264 262 253 249 251 253 252 249 247 245